sat.trackr.live / text

‹ back to catalog

STARLINK-5334

NORAD 56509 · 2023-065G

PAYLOAD ACTIVE UNKNOWN

§ Identity

Operator
Country
US
Launch date
2023-05-14
Launch site
AFETR
Launch vehicle
Mass (kg)
RCS (m²)

Purposes: comms

External: N2YO · Heavens-Above · Gunter

§ Orbital elements

Epoch: 2026-09-20T03:45:15.972768Z

Period
94.27 min
Inclination
43.0006°
Eccentricity
0.0001196
Mean motion
15.27577460 rev/d
Perigee alt
482.2 km
Apogee alt
483.9 km
Semi-major
6,861.2 km
B*
4.6437e-6
RAAN
194.0025°
Arg perigee
257.7571°
Mean anomaly
102.3147°
Rev number
18,634

§ Raw data

STARLINK-53341 56509U 23065G   26263.15643487 -.00000134  00000+0  46437-5 0  99952 56509  43.0006 194.0025 0001196 257.7571 102.3147 15.27577460186346

JSON: /api/v1/satellites/56509 · /tle

For live sub-satellite position, see the globe view (requires WebGL).

§ Visibility from observer

Set your observer location to see the next 7 days of passes ≥ 10°. The values pass through the URL so the page stays shareable.

No JS? Fill the form by hand. The geolocation button needs JavaScript.